カタログに戻る

SCOUT G-1 DEB

運用中PO
NORAD 21712·DEBRIS·🇺🇸 United States

打ち上げ Jun 29, 1991 から Vandenberg Space Force Base

Loading…

次のパス (今後24時間)

TLE

最新Source: Space-Track

元期: Sep 14, 2026, 09:45 UTC

1 21712U 91045F   26257.40630473  .00000544  00000-0  20668-3 0  9999
2 21712  89.2809 226.1941 0128851 326.5738 192.0690 14.25457029822519

AllMySatでSCOUT G-1 DEBをリアルタイム追跡

Download on the App Store